287  
ASUS43 KGRB 122300  
RWRGRB  
 
NORTH-CENTRAL AND NORTHEAST WISCONSIN REGIONAL WEATHER ROUNDUP  
NATIONAL WEATHER SERVICE GREEN BAY WI  
600 PM CDT SUN JUL 12 2020  
 
WIZ005-009-010>012-018-019-130000-  
NORTH CENTRAL WISCONSIN  
 
CITY SKY/WX TMP DP RH WIND PRES REMARKS
 
IRONWOOD SUNNY 73 54 51 VRB5 29.97F  
MANITOWISH WTR SUNNY 73 51 45 N5 29.97F  
ARBOR VITAE SUNNY 73 57 56 NE6 29.96F  
EAGLE RIVER SUNNY 73 44 35 N7 29.97S  
LAND O LAKES SUNNY 73 45 36 N7 30.00S  
RHINELANDER PTSUNNY 74 53 48 VRB5 29.97S  
PHILLIPS SUNNY 73 55 51 N5 29.96F  
ANTIGO PTSUNNY 74 56 53 NW8 29.95F  
TOMAHAWK PTSUNNY 71 56 61 CALM 29.97S  
MERRILL MOSUNNY 76 56 48 N6 29.95F  

 
 
WIZ013-073-130000-  
NORTHEAST WISCONSIN  
 
CITY SKY/WX TMP DP RH WIND PRES REMARKS
 
IRON MOUNTAIN MOSUNNY 76 53 44 N10 29.93R  
MARINETTE PTSUNNY 72 59 63 SE8 29.92S  
OCONTO CLOUDY 74 60 60 E5 29.91S  

 
 
WIZ017-030-035>037-045-130000-  
CENTRAL WISCONSIN  
 
CITY SKY/WX TMP DP RH WIND PRES REMARKS
 
MEDFORD NOT AVBL  
WAUSAU MOSUNNY 77 53 43 N5 29.93F  
MOSINEE MOSUNNY 75 54 46 NW5 29.96F  
MARSHFIELD SUNNY 77 56 48 N6 29.94F  
WISC RAPIDS SUNNY 79 55 43 VRB7G16 29.94F  
STEVENS POINT SUNNY 74 53 48 N3 29.95F  
WAUPACA MOSUNNY 80 54 40 NW5 29.93S  
SHAWANO MOSUNNY 80 53 40 NW7 29.92S  
CLINTONVILLE MOSUNNY 77 52 41 NE6 29.92S  
WAUTOMA MOSUNNY 79 58 48 N8 29.93S  

 
 
WIZ038-039-048-051-130000-  
FOX VALLEY  
 
CITY SKY/WX TMP DP RH WIND PRES REMARKS
 
NWS GREEN BAY CLOUDY 78 59 51 NW6 29.92S  
APPLETON MOSUNNY 75 45 33 N9 29.92S  
OSHKOSH PTSUNNY 76 58 53 CALM 29.92S  
FOND DU LAC MOSUNNY 78 59 51 NE9 29.93S  

 
 
WIZ022-050-052-130000-  
EAST CENTRAL WISCONSIN  
 
CITY SKY/WX TMP DP RH WIND PRES REMARKS
 
EPHRAIM MOCLDY 71 57 61 E5 29.92R  
WASHINGTON ISL FAIR 71 55 57 NE9 29.91R  
STURGEON BAY PTSUNNY 72 61 68 SE6 29.93S  
MANITOWOC MOSUNNY 72 62 71 SE7 29.93R  
SHEBOYGAN PTSUNNY 75 59 57 E3 29.92S  

 
 
LMZ563-521-522-541>543-130000-  
LAKESHORE  
 
STATION/POSITION TIME TEMP WIND PRES VSBY WAVE
 
AIR SEA DIR/SP/G HT/PER  
(UTC) (F) (DEG/KT/KT) (MB) (MI) (FT/S)  
SHEBOYGAN LKSHOR 2200 69 80/ 7/ 8 N/A  
KEWAUNEE LKSHORE 2224 70 130/ 4/ 6 1012.9  
NORTHPORT PIER 2240 72 60/ 7/ 11 1012.5S  
SISTER BAY LKSHO 2229 74 120/ 7/ 9 N/A  
MENOMINEE LKSHOR 2224 71 77 90/ 5/ 6 1012.9  

 
 
 
CLICK HERE TO GO TO PREVIOUS BULLETINS.

The Nexlab WI Page Main Text Page